owner,sensor,date,latitude,longitude,vertical_datum,sea_water_temperature,qcFlag
BP,ioos:station:wmo:42369:4,2021-07-01T00:00:00Z,27.2001,-90.2848,1342.0,4.3,11113222
BP,ioos:station:wmo:42369:4,2021-07-01T00:20:00Z,27.2001,-90.2848,1342.0,4.3,11113222
BP,ioos:station:wmo:42369:4,2021-07-01T00:40:00Z,27.2001,-90.2848,1342.0,4.3,11113222
BP,ioos:station:wmo:42369:4,2021-07-01T01:00:00Z,27.1999,-90.2846,1342.0,4.3,11113222
BP,ioos:station:wmo:42369:4,2021-07-01T01:20:00Z,27.1999,-90.2846,1342.0,4.3,11113222
BP,ioos:station:wmo:42369:4,2021-07-01T01:40:00Z,27.1999,-90.2846,1342.0,4.3,11113222
BP,ioos:station:wmo:42369:4,2021-07-01T02:00:00Z,27.1999,-90.2843,1342.0,4.3,11113222
BP,ioos:station:wmo:42369:4,2021-07-01T02:20:00Z,27.1999,-90.2843,1342.0,4.3,11113222
BP,ioos:station:wmo:42369:4,2021-07-01T02:40:00Z,27.1999,-90.2842,1342.0,4.3,11113222
BP,ioos:station:wmo:42369:4,2021-07-01T03:00:00Z,27.1999,-90.2842,1342.0,4.3,11113222
BP,ioos:station:wmo:42369:4,2021-07-01T03:20:00Z,27.1999,-90.2842,1342.0,4.3,11113222
BP,ioos:station:wmo:42369:4,2021-07-01T03:40:00Z,27.1999,-90.2842,1342.0,4.3,11113222
BP,ioos:station:wmo:42369:4,2021-07-01T04:00:00Z,27.1997,-90.2838,1342.0,4.3,11113222
BP,ioos:station:wmo:42369:4,2021-07-01T04:20:00Z,27.1997,-90.2839,1342.0,4.3,11113222
BP,ioos:station:wmo:42369:4,2021-07-01T04:40:00Z,27.1997,-90.2838,1342.0,4.3,11113222
BP,ioos:station:wmo:42369:4,2021-07-01T05:00:00Z,27.1997,-90.2835,1342.0,4.3,11113222
BP,ioos:station:wmo:42369:4,2021-07-01T05:20:00Z,27.1997,-90.2835,1342.0,4.3,11113222
BP,ioos:station:wmo:42369:4,2021-07-01T05:40:00Z,27.1996,-90.2834,1342.0,4.3,11113222
BP,ioos:station:wmo:42369:4,2021-07-01T06:00:00Z,27.1996,-90.2834,1342.0,4.3,11113222
BP,ioos:station:wmo:42369:4,2021-07-01T06:20:00Z,27.1996,-90.2834,1342.0,4.3,11113222
BP,ioos:station:wmo:42369:4,2021-07-01T06:40:00Z,27.1996,-90.2839,1342.0,4.3,11113222
BP,ioos:station:wmo:42369:4,2021-07-01T07:00:00Z,27.1996,-90.2839,1342.0,4.3,11113222
BP,ioos:station:wmo:42369:4,2021-07-01T07:20:00Z,27.1996,-90.2841,1342.0,4.3,11113222
BP,ioos:station:wmo:42369:4,2021-07-01T07:40:00Z,27.1996,-90.2842,1342.0,4.3,11113222
BP,ioos:station:wmo:42369:4,2021-07-01T08:00:00Z,27.1996,-90.2843,1342.0,4.3,11113222
BP,ioos:station:wmo:42369:4,2021-07-01T08:20:00Z,27.1996,-90.2843,1342.0,4.3,11113222
BP,ioos:station:wmo:42369:4,2021-07-01T08:40:00Z,27.1998,-90.2845,1342.0,4.3,11113222
BP,ioos:station:wmo:42369:4,2021-07-01T09:00:00Z,27.1999,-90.2846,1342.0,4.3,11113222
BP,ioos:station:wmo:42369:4,2021-07-01T09:20:00Z,27.2001,-90.2849,1342.0,4.3,11113222
BP,ioos:station:wmo:42369:4,2021-07-01T09:40:00Z,27.2001,-90.2849,1342.0,4.3,11113222
BP,ioos:station:wmo:42369:4,2021-07-01T10:00:00Z,27.2001,-90.2850,1342.0,4.3,11113222
BP,ioos:station:wmo:42369:4,2021-07-01T10:20:00Z,27.2001,-90.2850,1342.0,4.3,11113222
BP,ioos:station:wmo:42369:4,2021-07-01T10:40:00Z,27.2001,-90.2850,1342.0,4.3,11113222
BP,ioos:station:wmo:42369:4,2021-07-01T11:00:00Z,27.2000,-90.2848,1342.0,4.3,11113222
BP,ioos:station:wmo:42369:4,2021-07-01T11:20:00Z,27.2001,-90.2849,1342.0,4.3,11113222
BP,ioos:station:wmo:42369:4,2021-07-01T11:40:00Z,27.2001,-90.2849,1342.0,4.3,11113222
BP,ioos:station:wmo:42369:4,2021-07-01T12:00:00Z,27.2001,-90.2849,1342.0,4.3,11113222
BP,ioos:station:wmo:42369:4,2021-07-01T12:20:00Z,27.2004,-90.2849,1342.0,4.3,11113222
BP,ioos:station:wmo:42369:4,2021-07-01T12:40:00Z,27.2004,-90.2849,1342.0,4.3,11113222
BP,ioos:station:wmo:42369:4,2021-07-01T13:00:00Z,27.2004,-90.2839,1342.0,4.3,11113222
BP,ioos:station:wmo:42369:4,2021-07-01T13:20:00Z,27.2004,-90.2839,1342.0,4.3,11113222
BP,ioos:station:wmo:42369:4,2021-07-01T13:40:00Z,27.2004,-90.2839,1342.0,4.3,11113222
BP,ioos:station:wmo:42369:4,2021-07-01T14:00:00Z,27.2000,-90.2835,1342.0,4.3,11113222
BP,ioos:station:wmo:42369:4,2021-07-01T14:20:00Z,27.2000,-90.2833,1342.0,4.3,11113222
BP,ioos:station:wmo:42369:4,2021-07-01T14:40:00Z,27.2000,-90.2833,1342.0,4.3,11113222
BP,ioos:station:wmo:42369:4,2021-07-01T15:00:00Z,27.1999,-90.2833,1342.0,4.3,11113222
BP,ioos:station:wmo:42369:4,2021-07-01T15:20:00Z,27.1999,-90.2833,1342.0,4.3,11113222
BP,ioos:station:wmo:42369:4,2021-07-01T15:40:00Z,27.2000,-90.2830,1342.0,4.3,11113222
BP,ioos:station:wmo:42369:4,2021-07-01T16:00:00Z,27.2000,-90.2830,1342.0,4.3,11113222
BP,ioos:station:wmo:42369:4,2021-07-01T16:20:00Z,27.2000,-90.2830,1342.0,4.3,11113222
BP,ioos:station:wmo:42369:4,2021-07-01T16:40:00Z,27.1998,-90.2829,1342.0,4.3,11113222
BP,ioos:station:wmo:42369:4,2021-07-01T17:00:00Z,27.1998,-90.2829,1342.0,4.3,11113222
BP,ioos:station:wmo:42369:4,2021-07-01T17:20:00Z,27.1998,-90.2829,1342.0,4.3,11113222
BP,ioos:station:wmo:42369:4,2021-07-01T17:40:00Z,27.1998,-90.2829,1342.0,4.3,11113222
BP,ioos:station:wmo:42369:4,2021-07-01T18:00:00Z,27.1999,-90.2829,1342.0,4.3,11113222
BP,ioos:station:wmo:42369:4,2021-07-01T18:20:00Z,27.1999,-90.2829,1342.0,4.3,11113222
BP,ioos:station:wmo:42369:4,2021-07-01T18:40:00Z,27.1999,-90.2829,1342.0,4.3,11113222
BP,ioos:station:wmo:42369:4,2021-07-01T19:00:00Z,27.1999,-90.2829,1342.0,4.3,11113222
BP,ioos:station:wmo:42369:4,2021-07-01T19:20:00Z,27.2000,-90.2825,1342.0,4.3,11113222
BP,ioos:station:wmo:42369:4,2021-07-01T19:40:00Z,27.2000,-90.2825,1342.0,4.3,11113222
BP,ioos:station:wmo:42369:4,2021-07-01T20:00:00Z,27.1998,-90.2820,1342.0,4.3,11113222
BP,ioos:station:wmo:42369:4,2021-07-01T20:20:00Z,27.1998,-90.2818,1342.0,4.3,11113222
BP,ioos:station:wmo:42369:4,2021-07-01T20:40:00Z,27.1998,-90.2818,1342.0,4.3,11113222
BP,ioos:station:wmo:42369:4,2021-07-01T21:00:00Z,27.1998,-90.2818,1342.0,4.3,11113222
BP,ioos:station:wmo:42369:4,2021-07-01T21:20:00Z,27.1997,-90.2814,1342.0,4.3,11113222
BP,ioos:station:wmo:42369:4,2021-07-01T21:40:00Z,27.1997,-90.2814,1342.0,4.3,11113222
BP,ioos:station:wmo:42369:4,2021-07-01T22:00:00Z,27.1997,-90.2814,1342.0,4.3,11113222
BP,ioos:station:wmo:42369:4,2021-07-01T22:20:00Z,27.1997,-90.2814,1342.0,4.3,11113222
BP,ioos:station:wmo:42369:4,2021-07-01T22:40:00Z,27.1998,-90.2815,1342.0,4.3,11113222
BP,ioos:station:wmo:42369:4,2021-07-01T23:00:00Z,27.1998,-90.2815,1342.0,4.3,11113222
BP,ioos:station:wmo:42369:4,2021-07-01T23:20:00Z,27.1998,-90.2815,1342.0,4.3,11113222
BP,ioos:station:wmo:42369:4,2021-07-01T23:40:00Z,27.2000,-90.2814,1342.0,4.3,11113222
BP,ioos:station:wmo:42369:4,2021-07-02T00:00:00Z,27.2000,-90.2814,1342.0,4.3,11113222
BP,ioos:station:wmo:42369:4,2021-07-02T00:20:00Z,27.1998,-90.2811,1342.0,4.3,11113222
BP,ioos:station:wmo:42369:4,2021-07-02T00:40:00Z,27.1998,-90.2811,1342.0,4.3,11113222
BP,ioos:station:wmo:42369:4,2021-07-02T01:00:00Z,27.1998,-90.2811,1342.0,4.3,11113222
BP,ioos:station:wmo:42369:4,2021-07-02T01:20:00Z,27.1998,-90.2811,1342.0,4.3,11113222
BP,ioos:station:wmo:42369:4,2021-07-02T01:40:00Z,27.1997,-90.2814,1342.0,4.3,11113222
BP,ioos:station:wmo:42369:4,2021-07-02T02:00:00Z,27.1997,-90.2814,1342.0,4.3,11113222
BP,ioos:station:wmo:42369:4,2021-07-02T02:20:00Z,27.1997,-90.2817,1342.0,4.3,11113222
BP,ioos:station:wmo:42369:4,2021-07-02T02:40:00Z,27.1997,-90.2817,1342.0,4.3,11113222
BP,ioos:station:wmo:42369:4,2021-07-02T03:00:00Z,27.1997,-90.2817,1342.0,4.3,11113222
BP,ioos:station:wmo:42369:4,2021-07-02T03:20:00Z,27.1997,-90.2817,1342.0,4.3,11113222
BP,ioos:station:wmo:42369:4,2021-07-02T03:40:00Z,27.1997,-90.2818,1342.0,4.3,11113222
BP,ioos:station:wmo:42369:4,2021-07-02T04:00:00Z,27.1997,-90.2818,1342.0,4.3,11113222
BP,ioos:station:wmo:42369:4,2021-07-02T04:20:00Z,27.1997,-90.2818,1342.0,4.3,11113222
BP,ioos:station:wmo:42369:4,2021-07-02T04:40:00Z,27.1997,-90.2818,1342.0,4.3,11113222
BP,ioos:station:wmo:42369:4,2021-07-02T05:00:00Z,27.1997,-90.2818,1342.0,4.3,11113222
BP,ioos:station:wmo:42369:4,2021-07-02T05:20:00Z,27.1997,-90.2818,1342.0,4.3,11113222
BP,ioos:station:wmo:42369:4,2021-07-02T05:40:00Z,27.1997,-90.2818,1342.0,4.3,11113222
BP,ioos:station:wmo:42369:4,2021-07-02T06:00:00Z,27.1997,-90.2820,1342.0,4.3,11113222
BP,ioos:station:wmo:42369:4,2021-07-02T06:20:00Z,27.1997,-90.2821,1342.0,4.3,11113222
BP,ioos:station:wmo:42369:4,2021-07-02T06:40:00Z,27.1997,-90.2821,1342.0,4.3,11113222
BP,ioos:station:wmo:42369:4,2021-07-02T07:00:00Z,27.1997,-90.2821,1342.0,4.3,11113222
BP,ioos:station:wmo:42369:4,2021-07-02T07:20:00Z,27.1997,-90.2821,1342.0,4.3,11113222
BP,ioos:station:wmo:42369:4,2021-07-02T07:40:00Z,27.1998,-90.2823,1342.0,4.3,11113222
BP,ioos:station:wmo:42369:4,2021-07-02T08:00:00Z,27.1998,-90.2823,1342.0,4.3,11113222
BP,ioos:station:wmo:42369:4,2021-07-02T08:20:00Z,27.1998,-90.2823,1342.0,4.3,11113222
BP,ioos:station:wmo:42369:4,2021-07-02T08:40:00Z,27.1998,-90.2825,1342.0,4.3,11113222
BP,ioos:station:wmo:42369:4,2021-07-02T09:00:00Z,27.1998,-90.2825,1342.0,4.3,11113222
BP,ioos:station:wmo:42369:4,2021-07-02T09:20:00Z,27.1998,-90.2825,1342.0,4.3,11113222
BP,ioos:station:wmo:42369:4,2021-07-02T09:40:00Z,27.1998,-90.2825,1342.0,4.3,11113222
BP,ioos:station:wmo:42369:4,2021-07-02T10:00:00Z,27.1997,-90.2826,1342.0,4.3,11113222
BP,ioos:station:wmo:42369:4,2021-07-02T10:20:00Z,27.1997,-90.2826,1342.0,4.3,11113222
BP,ioos:station:wmo:42369:4,2021-07-02T10:40:00Z,27.1997,-90.2826,1342.0,4.3,11113222
BP,ioos:station:wmo:42369:4,2021-07-02T11:00:00Z,27.1997,-90.2835,1342.0,4.3,11113222
BP,ioos:station:wmo:42369:4,2021-07-02T11:20:00Z,27.1997,-90.2835,1342.0,4.3,11113222
BP,ioos:station:wmo:42369:4,2021-07-02T11:40:00Z,27.1997,-90.2835,1342.0,4.3,11113222
BP,ioos:station:wmo:42369:4,2021-07-02T12:00:00Z,27.1997,-90.2835,1342.0,4.3,11113222
BP,ioos:station:wmo:42369:4,2021-07-02T12:20:00Z,27.1997,-90.2836,1342.0,4.3,11113222
BP,ioos:station:wmo:42369:4,2021-07-02T12:40:00Z,27.1997,-90.2836,1342.0,4.3,11113222
BP,ioos:station:wmo:42369:4,2021-07-02T13:00:00Z,27.1997,-90.2836,1342.0,4.3,11113222
BP,ioos:station:wmo:42369:4,2021-07-02T13:20:00Z,27.1998,-90.2838,1342.0,4.3,11113222
BP,ioos:station:wmo:42369:4,2021-07-02T13:40:00Z,27.1998,-90.2839,1342.0,4.3,11113222
BP,ioos:station:wmo:42369:4,2021-07-02T14:00:00Z,27.1998,-90.2839,1342.0,4.3,11113222
BP,ioos:station:wmo:42369:4,2021-07-02T14:20:00Z,27.1998,-90.2838,1342.0,4.3,11113222
BP,ioos:station:wmo:42369:4,2021-07-02T14:40:00Z,27.1998,-90.2837,1342.0,4.3,11113222
BP,ioos:station:wmo:42369:4,2021-07-02T15:00:00Z,27.1998,-90.2835,1342.0,4.3,11113222
BP,ioos:station:wmo:42369:4,2021-07-02T15:20:00Z,27.1998,-90.2835,1342.0,4.3,11113222
BP,ioos:station:wmo:42369:4,2021-07-02T15:40:00Z,27.1998,-90.2835,1342.0,4.3,11113222
BP,ioos:station:wmo:42369:4,2021-07-02T16:00:00Z,27.1998,-90.2830,1342.0,4.3,11113222
BP,ioos:station:wmo:42369:4,2021-07-02T16:20:00Z,27.1998,-90.2829,1342.0,4.3,11113222
BP,ioos:station:wmo:42369:4,2021-07-02T16:40:00Z,27.1998,-90.2829,1342.0,4.3,11113222
BP,ioos:station:wmo:42369:4,2021-07-02T17:00:00Z,27.1998,-90.2829,1342.0,4.3,11113222
BP,ioos:station:wmo:42369:4,2021-07-02T17:20:00Z,27.2000,-90.2812,1342.0,4.3,11113222
BP,ioos:station:wmo:42369:4,2021-07-02T17:40:00Z,27.2000,-90.2812,1342.0,4.3,11113222
BP,ioos:station:wmo:42369:4,2021-07-02T18:00:00Z,27.2000,-90.2812,1342.0,4.3,11113222
BP,ioos:station:wmo:42369:4,2021-07-02T18:20:00Z,27.2000,-90.2807,1342.0,4.3,11113222
BP,ioos:station:wmo:42369:4,2021-07-02T18:40:00Z,27.2000,-90.2807,1342.0,4.3,11113222
BP,ioos:station:wmo:42369:4,2021-07-02T19:00:00Z,27.2000,-90.2805,1342.0,4.3,11113222
BP,ioos:station:wmo:42369:4,2021-07-02T19:20:00Z,27.2000,-90.2805,1342.0,4.3,11113222
BP,ioos:station:wmo:42369:4,2021-07-02T19:40:00Z,27.2000,-90.2802,1342.0,4.3,11113222
BP,ioos:station:wmo:42369:4,2021-07-02T20:00:00Z,27.2000,-90.2802,1342.0,4.3,11113222
BP,ioos:station:wmo:42369:4,2021-07-02T20:20:00Z,27.2001,-90.2801,1342.0,4.3,11113222
BP,ioos:station:wmo:42369:4,2021-07-02T20:40:00Z,27.2001,-90.2801,1342.0,4.3,11113222
BP,ioos:station:wmo:42369:4,2021-07-02T21:00:00Z,27.2000,-90.2798,1342.0,4.3,11113222
BP,ioos:station:wmo:42369:4,2021-07-02T21:20:00Z,27.2000,-90.2798,1342.0,4.3,11113222
BP,ioos:station:wmo:42369:4,2021-07-02T21:40:00Z,27.1999,-90.2798,1342.0,4.3,11113222
BP,ioos:station:wmo:42369:4,2021-07-02T22:00:00Z,27.1999,-90.2798,1342.0,4.3,11113222
BP,ioos:station:wmo:42369:4,2021-07-02T22:20:00Z,27.1999,-90.2799,1342.0,4.3,11113222
BP,ioos:station:wmo:42369:4,2021-07-02T22:40:00Z,27.1999,-90.2799,1342.0,4.3,11113222
BP,ioos:station:wmo:42369:4,2021-07-02T23:00:00Z,27.1998,-90.2801,1342.0,4.3,11113222
BP,ioos:station:wmo:42369:4,2021-07-02T23:20:00Z,27.1997,-90.2802,1342.0,4.3,11113222
BP,ioos:station:wmo:42369:4,2021-07-02T23:40:00Z,27.1997,-90.2802,1342.0,4.3,11113222
BP,ioos:station:wmo:42369:4,2021-07-03T00:00:00Z,27.1997,-90.2802,1342.0,4.3,11113222
BP,ioos:station:wmo:42369:4,2021-07-03T00:20:00Z,27.1996,-90.2806,1342.0,4.3,11113222
BP,ioos:station:wmo:42369:4,2021-07-03T00:40:00Z,27.1996,-90.2806,1342.0,4.3,11113222
BP,ioos:station:wmo:42369:4,2021-07-03T01:00:00Z,27.1996,-90.2805,1342.0,4.3,11113222
BP,ioos:station:wmo:42369:4,2021-07-03T01:20:00Z,27.1996,-90.2805,1342.0,4.3,11113222
BP,ioos:station:wmo:42369:4,2021-07-03T01:40:00Z,27.1996,-90.2805,1342.0,4.3,11113222
BP,ioos:station:wmo:42369:4,2021-07-03T02:00:00Z,27.1995,-90.2808,1342.0,4.3,11113222
BP,ioos:station:wmo:42369:4,2021-07-03T02:20:00Z,27.1995,-90.2808,1342.0,4.3,11113222
BP,ioos:station:wmo:42369:4,2021-07-03T02:40:00Z,27.1995,-90.2808,1342.0,4.3,11113222
BP,ioos:station:wmo:42369:4,2021-07-03T03:00:00Z,27.1995,-90.2817,1342.0,4.3,11113222
BP,ioos:station:wmo:42369:4,2021-07-03T03:20:00Z,27.1995,-90.2817,1342.0,4.3,11113222
BP,ioos:station:wmo:42369:4,2021-07-03T03:40:00Z,27.1995,-90.2817,1342.0,4.3,11113222
BP,ioos:station:wmo:42369:4,2021-07-03T04:00:00Z,27.1995,-90.2818,1342.0,4.3,11113222
BP,ioos:station:wmo:42369:4,2021-07-03T04:20:00Z,27.1995,-90.2819,1342.0,4.3,11113222
BP,ioos:station:wmo:42369:4,2021-07-03T04:40:00Z,27.1995,-90.2819,1342.0,4.3,11113222
BP,ioos:station:wmo:42369:4,2021-07-03T05:00:00Z,27.1995,-90.2819,1342.0,4.3,11113222
BP,ioos:station:wmo:42369:4,2021-07-03T05:20:00Z,27.1995,-90.2823,1342.0,4.3,11113222
BP,ioos:station:wmo:42369:4,2021-07-03T05:40:00Z,27.1995,-90.2823,1342.0,4.3,11113222
BP,ioos:station:wmo:42369:4,2021-07-03T06:00:00Z,27.1995,-90.2823,1342.0,4.3,11113222
BP,ioos:station:wmo:42369:4,2021-07-03T06:20:00Z,27.1995,-90.2823,1342.0,4.3,11113222
BP,ioos:station:wmo:42369:4,2021-07-03T06:40:00Z,27.1995,-90.2825,1342.0,4.3,11113222
BP,ioos:station:wmo:42369:4,2021-07-03T07:00:00Z,27.1994,-90.2824,1342.0,4.3,11113222
BP,ioos:station:wmo:42369:4,2021-07-03T07:20:00Z,27.1994,-90.2824,1342.0,4.3,11113222
BP,ioos:station:wmo:42369:4,2021-07-03T07:40:00Z,27.1994,-90.2824,1342.0,4.3,11113222
BP,ioos:station:wmo:42369:4,2021-07-03T08:00:00Z,27.1995,-90.2817,1342.0,4.3,11113222
BP,ioos:station:wmo:42369:4,2021-07-03T08:20:00Z,27.1995,-90.2817,1342.0,4.3,11113222
BP,ioos:station:wmo:42369:4,2021-07-03T08:40:00Z,27.1995,-90.2817,1342.0,4.3,11113222
BP,ioos:station:wmo:42369:4,2021-07-03T09:00:00Z,27.1996,-90.2814,1342.0,4.3,11113222
BP,ioos:station:wmo:42369:4,2021-07-03T09:20:00Z,27.1996,-90.2814,1342.0,4.3,11113222
BP,ioos:station:wmo:42369:4,2021-07-03T09:40:00Z,27.1996,-90.2814,1342.0,4.3,11113222
BP,ioos:station:wmo:42369:4,2021-07-03T10:00:00Z,27.1996,-90.2815,1342.0,4.3,11113222
BP,ioos:station:wmo:42369:4,2021-07-03T10:20:00Z,27.1996,-90.2815,1342.0,4.3,11113222
BP,ioos:station:wmo:42369:4,2021-07-03T10:40:00Z,27.1996,-90.2815,1342.0,4.3,11113222
BP,ioos:station:wmo:42369:4,2021-07-03T11:00:00Z,27.1996,-90.2813,1342.0,4.3,11113222
BP,ioos:station:wmo:42369:4,2021-07-03T11:20:00Z,27.1996,-90.2813,1342.0,4.3,11113222
BP,ioos:station:wmo:42369:4,2021-07-03T11:40:00Z,27.1996,-90.2813,1342.0,4.3,11113222
BP,ioos:station:wmo:42369:4,2021-07-03T12:00:00Z,27.1995,-90.2812,1342.0,4.3,11113222
BP,ioos:station:wmo:42369:4,2021-07-03T12:20:00Z,27.1995,-90.2812,1342.0,4.3,11113222
BP,ioos:station:wmo:42369:4,2021-07-03T12:40:00Z,27.1995,-90.2812,1342.0,4.3,11113222
BP,ioos:station:wmo:42369:4,2021-07-03T13:00:00Z,27.1995,-90.2813,1342.0,4.3,11113222
BP,ioos:station:wmo:42369:4,2021-07-03T13:20:00Z,27.1996,-90.2813,1342.0,4.3,11113222
BP,ioos:station:wmo:42369:4,2021-07-03T13:40:00Z,27.1996,-90.2813,1342.0,4.3,11113222
BP,ioos:station:wmo:42369:4,2021-07-03T14:00:00Z,27.1996,-90.2813,1342.0,4.3,11113222
BP,ioos:station:wmo:42369:4,2021-07-03T14:20:00Z,27.1996,-90.2813,1342.0,4.3,11113222
BP,ioos:station:wmo:42369:4,2021-07-03T14:40:00Z,27.1996,-90.2807,1342.0,4.3,11113222
BP,ioos:station:wmo:42369:4,2021-07-03T15:00:00Z,27.1996,-90.2807,1342.0,4.3,11113222
BP,ioos:station:wmo:42369:4,2021-07-03T15:20:00Z,27.1996,-90.2807,1342.0,4.3,11113222
BP,ioos:station:wmo:42369:4,2021-07-03T15:40:00Z,27.1999,-90.2801,1342.0,4.3,11113222
BP,ioos:station:wmo:42369:4,2021-07-03T16:00:00Z,27.1999,-90.2801,1342.0,4.3,11113222
BP,ioos:station:wmo:42369:4,2021-07-03T16:20:00Z,27.1999,-90.2801,1342.0,4.3,11113222
BP,ioos:station:wmo:42369:4,2021-07-03T16:40:00Z,27.1999,-90.2796,1342.0,4.3,11113222
BP,ioos:station:wmo:42369:4,2021-07-03T17:00:00Z,27.1999,-90.2796,1342.0,4.3,11113222
BP,ioos:station:wmo:42369:4,2021-07-03T17:20:00Z,27.1999,-90.2796,1342.0,4.3,11113222
BP,ioos:station:wmo:42369:4,2021-07-03T17:40:00Z,27.2003,-90.2788,1342.0,4.3,11113222
BP,ioos:station:wmo:42369:4,2021-07-03T18:00:00Z,27.2003,-90.2788,1342.0,4.3,11113222
BP,ioos:station:wmo:42369:4,2021-07-03T18:20:00Z,27.2003,-90.2788,1342.0,4.3,11113222
BP,ioos:station:wmo:42369:4,2021-07-03T18:40:00Z,27.2003,-90.2785,1342.0,4.3,11113222
BP,ioos:station:wmo:42369:4,2021-07-03T19:00:00Z,27.2003,-90.2785,1342.0,4.3,11113222
BP,ioos:station:wmo:42369:4,2021-07-03T19:20:00Z,27.2003,-90.2785,1342.0,4.3,11113222
BP,ioos:station:wmo:42369:4,2021-07-03T19:40:00Z,27.2002,-90.2789,1342.0,4.3,11113222
BP,ioos:station:wmo:42369:4,2021-07-03T20:00:00Z,27.2002,-90.2789,1342.0,4.3,11113222
BP,ioos:station:wmo:42369:4,2021-07-03T20:20:00Z,27.2001,-90.2790,1342.0,4.3,11113222
BP,ioos:station:wmo:42369:4,2021-07-03T20:40:00Z,27.2001,-90.2790,1342.0,4.3,11113222
BP,ioos:station:wmo:42369:4,2021-07-03T21:00:00Z,27.2001,-90.2790,1342.0,4.3,11113222
BP,ioos:station:wmo:42369:4,2021-07-03T21:20:00Z,27.2001,-90.2790,1342.0,4.3,11113222
BP,ioos:station:wmo:42369:4,2021-07-03T21:40:00Z,27.2000,-90.2792,1342.0,4.3,11113222
BP,ioos:station:wmo:42369:4,2021-07-03T22:00:00Z,27.2000,-90.2792,1342.0,4.3,11113222
BP,ioos:station:wmo:42369:4,2021-07-03T22:20:00Z,27.2000,-90.2792,1342.0,4.3,11113222
BP,ioos:station:wmo:42369:4,2021-07-03T22:40:00Z,27.1998,-90.2799,1342.0,4.3,11113222
BP,ioos:station:wmo:42369:4,2021-07-03T23:00:00Z,27.1998,-90.2799,1342.0,4.3,11113222
BP,ioos:station:wmo:42369:4,2021-07-03T23:20:00Z,27.1998,-90.2799,1342.0,4.3,11113222
BP,ioos:station:wmo:42369:4,2021-07-03T23:40:00Z,27.1997,-90.2803,1342.0,4.3,11113222
BP,ioos:station:wmo:42369:4,2021-07-04T00:00:00Z,27.1996,-90.2806,1342.0,4.3,11113222
BP,ioos:station:wmo:42369:4,2021-07-04T00:20:00Z,27.1996,-90.2808,1342.0,4.3,11113222
BP,ioos:station:wmo:42369:4,2021-07-04T00:40:00Z,27.1995,-90.2811,1342.0,4.3,11113222
BP,ioos:station:wmo:42369:4,2021-07-04T01:00:00Z,27.1995,-90.2814,1342.0,4.3,11113222
BP,ioos:station:wmo:42369:4,2021-07-04T01:20:00Z,27.1995,-90.2814,1342.0,4.3,11113222
BP,ioos:station:wmo:42369:4,2021-07-04T01:40:00Z,27.1995,-90.2814,1342.0,4.3,11113222
BP,ioos:station:wmo:42369:4,2021-07-04T02:00:00Z,27.1994,-90.2828,1342.0,4.3,11113222
BP,ioos:station:wmo:42369:4,2021-07-04T02:20:00Z,27.1994,-90.2828,1342.0,4.3,11113222
BP,ioos:station:wmo:42369:4,2021-07-04T02:40:00Z,27.1994,-90.2831,1342.0,4.3,11113222
BP,ioos:station:wmo:42369:4,2021-07-04T03:00:00Z,27.1994,-90.2832,1342.0,4.3,11113222
BP,ioos:station:wmo:42369:4,2021-07-04T03:20:00Z,27.1994,-90.2832,1342.0,4.3,11113222
BP,ioos:station:wmo:42369:4,2021-07-04T03:40:00Z,27.1995,-90.2834,1342.0,4.3,11113222
BP,ioos:station:wmo:42369:4,2021-07-04T04:00:00Z,27.1995,-90.2834,1342.0,4.3,11113222
BP,ioos:station:wmo:42369:4,2021-07-04T04:20:00Z,27.1995,-90.2834,1342.0,4.3,11113222
BP,ioos:station:wmo:42369:4,2021-07-04T04:40:00Z,27.1995,-90.2834,1342.0,4.3,11113222
BP,ioos:station:wmo:42369:4,2021-07-04T05:00:00Z,27.1997,-90.2841,1342.0,4.3,11113222
BP,ioos:station:wmo:42369:4,2021-07-04T05:20:00Z,27.1997,-90.2841,1342.0,4.3,11113222
BP,ioos:station:wmo:42369:4,2021-07-04T05:40:00Z,27.2000,-90.2844,1342.0,4.3,11113222
BP,ioos:station:wmo:42369:4,2021-07-04T06:00:00Z,27.2000,-90.2844,1342.0,4.3,11113222
BP,ioos:station:wmo:42369:4,2021-07-04T06:20:00Z,27.1999,-90.2844,1342.0,4.3,11113222
BP,ioos:station:wmo:42369:4,2021-07-04T06:40:00Z,27.1998,-90.2843,1342.0,4.3,11113222
BP,ioos:station:wmo:42369:4,2021-07-04T07:00:00Z,27.1998,-90.2843,1342.0,4.3,11113222
BP,ioos:station:wmo:42369:4,2021-07-04T07:20:00Z,27.1999,-90.2844,1342.0,4.3,11113222
BP,ioos:station:wmo:42369:4,2021-07-04T07:40:00Z,27.1999,-90.2844,1342.0,4.3,11113222
BP,ioos:station:wmo:42369:4,2021-07-04T08:00:00Z,27.1999,-90.2844,1342.0,4.3,11113222
BP,ioos:station:wmo:42369:4,2021-07-04T08:20:00Z,27.2002,-90.2845,1342.0,4.3,11113222
BP,ioos:station:wmo:42369:4,2021-07-04T08:40:00Z,27.2002,-90.2845,1342.0,4.3,11113222
BP,ioos:station:wmo:42369:4,2021-07-04T09:00:00Z,27.2002,-90.2846,1342.0,4.3,11113222
BP,ioos:station:wmo:42369:4,2021-07-04T09:20:00Z,27.2003,-90.2846,1342.0,4.3,11113222
BP,ioos:station:wmo:42369:4,2021-07-04T09:40:00Z,27.2003,-90.2846,1342.0,4.3,11113222
BP,ioos:station:wmo:42369:4,2021-07-04T10:00:00Z,27.2004,-90.2846,1342.0,4.3,11113222
BP,ioos:station:wmo:42369:4,2021-07-04T10:20:00Z,27.2004,-90.2846,1342.0,4.3,11113222
BP,ioos:station:wmo:42369:4,2021-07-04T10:40:00Z,27.2004,-90.2846,1342.0,4.3,11113222
BP,ioos:station:wmo:42369:4,2021-07-04T11:00:00Z,27.2009,-90.2843,1342.0,4.3,11113222
BP,ioos:station:wmo:42369:4,2021-07-04T11:20:00Z,27.2009,-90.2843,1342.0,4.3,11113222
BP,ioos:station:wmo:42369:4,2021-07-04T11:40:00Z,27.2008,-90.2840,1342.0,4.3,11113222
BP,ioos:station:wmo:42369:4,2021-07-04T12:00:00Z,27.2007,-90.2841,1342.0,4.3,11113222
BP,ioos:station:wmo:42369:4,2021-07-04T12:20:00Z,27.2007,-90.2841,1342.0,4.3,11113222
BP,ioos:station:wmo:42369:4,2021-07-04T12:40:00Z,27.2004,-90.2842,1342.0,4.3,11113222
BP,ioos:station:wmo:42369:4,2021-07-04T13:00:00Z,27.2008,-90.2840,1342.0,4.3,11113222
BP,ioos:station:wmo:42369:4,2021-07-04T13:20:00Z,27.2008,-90.2840,1342.0,4.3,11113222
BP,ioos:station:wmo:42369:4,2021-07-04T13:40:00Z,27.2008,-90.2840,1342.0,4.3,11113222
BP,ioos:station:wmo:42369:4,2021-07-04T14:00:00Z,27.2002,-90.2832,1342.0,4.3,11113222
BP,ioos:station:wmo:42369:4,2021-07-04T14:20:00Z,27.2002,-90.2832,1342.0,4.3,11113222
BP,ioos:station:wmo:42369:4,2021-07-04T14:40:00Z,27.2002,-90.2832,1342.0,4.3,11113222
BP,ioos:station:wmo:42369:4,2021-07-04T15:00:00Z,27.1996,-90.2822,1342.0,4.3,11113222
BP,ioos:station:wmo:42369:4,2021-07-04T15:20:00Z,27.1996,-90.2822,1342.0,4.3,11113222
BP,ioos:station:wmo:42369:4,2021-07-04T15:40:00Z,27.1996,-90.2819,1342.0,4.3,11113222
BP,ioos:station:wmo:42369:4,2021-07-04T16:00:00Z,27.1996,-90.2819,1342.0,4.3,11113222
BP,ioos:station:wmo:42369:4,2021-07-04T16:20:00Z,27.1996,-90.2819,1342.0,4.3,11113222
BP,ioos:station:wmo:42369:4,2021-07-04T16:40:00Z,27.1996,-90.2819,1342.0,4.3,11113222
BP,ioos:station:wmo:42369:4,2021-07-04T17:00:00Z,27.1994,-90.2804,1342.0,4.3,11113222
BP,ioos:station:wmo:42369:4,2021-07-04T17:20:00Z,27.1995,-90.2802,1342.0,4.3,11113222
BP,ioos:station:wmo:42369:4,2021-07-04T17:40:00Z,27.1995,-90.2802,1342.0,4.3,11113222
BP,ioos:station:wmo:42369:4,2021-07-04T18:00:00Z,27.1995,-90.2802,1342.0,4.3,11113222
BP,ioos:station:wmo:42369:4,2021-07-04T18:20:00Z,27.1995,-90.2802,1342.0,4.3,11113222
BP,ioos:station:wmo:42369:4,2021-07-04T18:40:00Z,27.1995,-90.2803,1342.0,4.3,11113222
BP,ioos:station:wmo:42369:4,2021-07-04T19:00:00Z,27.1995,-90.2803,1342.0,4.3,11113222